Theta_e
335 334 336 335 337 337 339 340 340 341 342 341 341 341 341 341 340 339 339 339 339 338 338 337 337 336 335 335 336 335 335 334 331 328 327 328 325 324 328 327 328 329 330 329 325 322 320 316 320 327 329 330 330 330 331 331 331 333 329 331 333 331 331
334 335 335 334 332 336 337 337 339 339 339 341 341 341 340 340 339 339 338 338 339 338 337 337 338 335 334 332 333 334 333 333 332 331 329 327 328 326 327 326 327 325 326 327 328 326 320 318 319 320 322 327 329 330 332 333 333 333 332 331 331 329 330
335 336 336 334 333 333 335 337 338 338 338 339 340 340 340 340 340 340 339 338 338 338 337 335 336 336 334 333 332 333 334 332 333 331 329 329 329 329 328 327 324 323 324 325 325 324 324 323 319 320 322 321 319 324 330 331 332 332 331 333 331 329 329
333 334 334 333 332 332 333 334 336 337 338 337 337 339 342 340 340 339 340 339 337 339 337 336 336 335 334 335 334 334 334 333 332 331 330 329 330 329 329 328 326 324 323 321 322 323 323 321 321 321 322 324 322 322 326 330 331 331 331 331 327 328 328
331 331 331 332 334 332 334 334 335 336 335 336 336 336 338 339 339 340 340 339 338 335 336 335 335 335 334 335 334 334 333 333 333 331 329 328 329 328 328 328 328 329 327 325 325 326 324 324 322 321 321 324 325 325 328 329 332 330 331 331 329 328 328
328 328 328 330 332 332 333 333 333 334 334 334 335 335 337 342 341 339 338 338 335 337 335 334 335 335 333 334 333 334 333 331 332 331 329 329 329 327 327 329 328 328 328 329 330 328 328 327 325 322 323 324 320 321 327 329 326 330 330 330 330 334 330
326 326 327 327 329 331 332 332 332 332 333 334 334 335 338 337 338 335 335 337 337 335 334 333 335 334 334 334 334 333 332 331 331 331 331 331 330 329 330 328 327 327 327 329 330 329 326 326 323 322 321 321 322 321 325 325 328 325 328 333 335 332 337
325 326 326 327 327 327 329 331 333 333 333 333 334 336 337 337 337 337 336 334 334 334 333 333 334 334 333 332 332 333 333 333 332 331 331 331 330 330 330 328 328 328 329 330 330 328 330 328 325 324 322 318 318 319 319 323 325 325 325 329 332 331 331
324 325 326 326 326 327 327 328 331 333 334 334 335 335 336 336 335 334 336 335 334 334 334 333 334 333 332 332 334 331 331 333 331 331 330 331 330 331 330 329 329 329 331 331 330 330 331 329 328 327 325 322 317 314 317 318 320 322 328 327 331 333 332
321 322 322 323 324 325 326 328 329 331 334 335 334 335 335 336 335 335 334 335 334 333 331 330 331 331 332 331 331 331 330 331 331 330 330 329 331 331 331 330 330 330 331 332 330 331 331 330 329 329 328 325 323 317 315 315 317 319 324 326 323 327 333
320 321 321 321 321 322 324 326 327 328 330 333 333 334 334 334 334 335 334 333 332 332 333 333 332 330 330 331 331 330 331 332 331 331 330 330 331 332 332 331 330 330 331 332 331 332 331 329 328 329 328 327 326 321 319 315 316 322 322 325 326 324 328
318 319 320 320 321 320 321 321 322 324 327 329 330 332 332 332 333 333 333 333 332 332 332 332 332 330 329 329 329 330 331 331 329 328 328 329 330 330 330 330 330 330 331 331 331 332 331 329 330 330 328 328 326 325 323 320 316 322 325 321 326 329 328
317 317 318 318 318 317 318 319 320 322 324 326 328 330 331 331 331 331 331 331 330 331 330 331 330 328 329 329 328 328 330 330 329 328 329 330 328 328 328 329 330 331 331 331 331 331 331 330 329 328 329 329 329 328 324 322 320 320 326 324 326 328 328
316 317 317 317 317 316 317 317 318 320 322 323 325 327 330 330 330 330 330 329 329 329 329 328 330 330 329 329 329 329 329 327 327 327 328 328 329 328 328 329 330 331 331 330 330 330 329 331 330 330 330 329 328 327 323 323 320 320 324 327 326 327 328
316 316 316 316 316 315 315 315 317 318 319 321 323 326 329 329 329 329 328 327 328 328 328 329 330 330 329 328 327 328 327 327 329 327 328 327 328 328 328 329 329 330 331 331 330 329 330 329 329 329 329 328 326 326 327 324 321 319 319 324 323 328 328
315 315 314 315 314 314 314 314 313 315 316 318 321 322 324 324 325 325 325 326 327 327 327 328 329 329 328 328 327 328 327 326 327 326 326 327 328 327 326 327 328 330 331 329 330 330 330 329 329 329 328 328 326 326 327 326 322 320 319 320 323 323 325
315 314 313 313 313 313 313 312 312 312 314 315 317 319 319 318 319 321 322 325 326 327 327 328 327 328 328 327 326 327 328 327 326 326 326 327 327 327 327 328 329 328 329 329 329 328 329 329 329 328 328 326 326 326 326 326 326 322 321 320 321 322 325
313 313 312 312 313 313 312 311 310 310 311 312 313 314 315 317 317 317 318 323 326 327 327 327 326 327 328 329 328 327 327 327 327 327 327 328 327 326 327 326 328 329 329 328 329 328 329 329 330 326 325 326 326 327 327 328 328 328 323 321 323 324 324
312 312 312 312 312 312 311 310 309 309 310 309 311 312 312 313 315 314 316 319 327 327 327 326 323 325 327 327 327 327 326 325 325 326 327 328 328 328 329 327 327 326 326 328 329 329 329 329 329 328 327 326 326 325 325 328 327 327 325 323 322 320 323
311 311 311 311 311 311 310 310 309 308 308 308 309 309 309 310 312 313 313 317 312 309 307 305 305 305 312 322 326 326 325 326 328 328 327 327 328 329 328 329 327 328 328 329 328 329 329 328 328 325 326 324 326 324 324 326 325 325 325 323 320 319 320
310 310 311 310 310 310 310 309 309 308 308 306 307 307 307 308 309 310 310 312 310 307 304 302 301 300 302 306 314 321 324 325 325 325 326 326 327 327 327 328 328 328 328 329 329 329 329 327 328 326 328 327 324 324 325 325 324 323 322 322 319 317 318
310 309 309 309 309 309 308 309 309 308 307 306 306 306 306 307 306 306 307 309 310 305 301 300 299 298 297 299 306 313 318 322 325 326 326 326 326 327 327 327 328 328 329 329 323 324 325 326 328 326 326 327 325 324 324 323 322 322 321 320 320 319 317
308 308 308 308 308 308 307 308 307 307 307 306 305 305 304 305 305 305 305 305 307 305 301 299 298 295 295 296 299 304 310 316 320 325 325 325 326 328 328 327 328 329 324 322 317 314 310 314 320 325 327 327 325 324 323 322 321 321 320 319 319 319 315
307 307 307 307 307 306 307 307 306 306 307 306 305 305 304 303 303 303 304 303 303 305 301 298 294 292 292 293 296 299 304 311 319 323 325 325 324 325 326 327 327 326 323 322 320 304 305 308 311 312 315 319 323 326 324 322 321 321 319 318 319 318 318
306 306 306 305 306 306 306 306 306 306 306 306 306 306 304 303 302 302 303 302 302 302 300 296 292 292 292 292 294 296 301 309 316 320 325 326 326 325 326 326 327 327 326 326 323 312 308 304 305 306 307 307 310 313 315 322 321 319 319 318 318 319 318
305 305 305 305 305 305 305 305 305 305 305 306 306 305 304 303 302 302 302 301 300 301 300 295 292 292 292 291 292 294 299 306 313 318 322 326 327 326 325 324 325 327 326 323 324 321 317 311 303 302 304 306 307 305 304 303 311 324 322 319 319 319 318
304 304 304 304 304 304 304 304 304 305 305 305 305 304 304 304 303 302 301 300 300 300 299 294 292 292 291 291 291 293 303 309 314 317 321 324 326 325 324 323 323 324 327 327 326 326 320 318 315 315 317 321 321 313 304 297 299 304 314 324 321 319 320
303 304 304 304 304 303 303 304 304 304 304 303 303 303 303 303 303 303 302 301 300 299 298 293 292 292 291 291 291 295 304 308 313 317 320 323 325 322 322 325 324 322 324 326 326 320 323 321 320 320 321 322 322 321 321 319 319 320 322 324 325 323 322
303 303 303 303 303 303 303 303 303 303 303 303 303 303 303 304 303 302 302 301 299 298 298 293 292 292 292 291 292 299 303 308 312 314 316 319 323 320 314 314 321 323 323 322 316 304 312 324 323 322 321 322 321 312 303 296 292 294 302 320 322 312 306
302 302 302 301 301 302 302 302 303 304 302 302 301 301 301 301 302 302 302 301 299 298 298 295 293 292 292 291 293 298 303 308 311 312 311 313 320 310 307 305 306 312 321 323 312 302 305 310 324 323 322 320 316 311 307 304 295 293 294 293 293 293 293
301 301 301 300 300 301 302 302 302 304 302 301 300 301 301 301 301 301 301 300 300 298 298 297 293 293 292 292 293 297 301 303 305 309 309 309 315 310 306 303 303 298 301 308 301 300 300 311 321 321 321 316 314 310 308 308 306 301 294 294 295 295 296
302 301 300 301 301 300 300 301 302 302 302 302 301 301 301 300 300 300 300 299 300 299 297 297 294 292 292 292 293 296 296 298 300 304 305 305 306 303 301 302 299 294 294 294 290 295 298 311 322 320 321 316 313 311 308 308 307 306 307 307 308 309 307
302 301 300 301 301 300 300 300 300 300 301 301 301 301 300 300 299 299 299 299 298 298 297 296 296 293 293 292 292 294 295 294 295 299 299 299 299 298 297 297 297 292 290 290 291 290 291 293 318 322 321 318 314 310 310 309 310 310 309 310 310 310 309
302 301 301 301 301 301 300 299 299 299 299 300 300 300 299 299 299 298 299 299 298 297 297 296 296 293 293 293 292 293 294 293 294 296 296 295 296 294 294 295 295 293 290 290 291 291 292 292 295 316 320 319 317 310 307 310 309 306 311 309 308 308 308
303 302 301 301 300 300 300 299 298 298 298 298 298 298 298 298 298 298 298 299 298 297 298 297 295 294 293 293 292 292 293 294 293 295 293 293 293 293 293 293 294 292 290 290 290 291 291 292 293 307 311 299 298 300 311 311 311 311 309 307 307 305 305
302 303 302 301 300 300 300 299 298 298 297 297 297 296 296 297 297 297 297 297 298 297 297 297 295 294 293 292 292 292 291 292 292 296 293 292 292 292 293 293 294 292 291 291 290 291 291 292 294 292 292 296 297 298 304 310 309 308 308 307 306 304 302
302 302 301 301 300 299 299 299 298 298 297 296 295 295 295 295 296 297 296 296 297 297 297 297 295 293 294 292 292 292 291 291 291 294 295 294 293 293 292 292 292 290 291 291 291 291 291 291 292 291 292 292 296 300 309 308 307 307 304 304 303 302 302
Wind_Speed
5 7 6 5 6 7 7 5 4 5 5 4 4 4 5 5 5 6 5 5 6 7 5 6 8 6 5 6 8 9 8 7 9 9 8 7 8 7 9 9 5 0 2 4 2 4 4 4 4 2 2 4 4 4 5 5 6 6 7 7 4 4 4
5 6 5 4 5 6 7 6 5 5 5 5 5 5 6 6 6 6 6 6 6 7 6 6 6 6 9 7 8 8 9 8 8 8 7 8 8 7 8 8 5 4 2 4 1 2 3 3 3 7 5 3 2 3 5 4 4 4 5 5 5 7 6
4 5 5 5 4 4 7 6 5 4 4 4 5 6 6 6 5 5 5 7 6 6 5 5 4 5 6 6 9 9 8 10 8 8 8 7 7 6 7 7 7 5 5 5 3 2 1 2 4 7 6 7 7 6 5 5 5 5 5 1 5 5 6
9 7 7 8 7 6 6 7 7 5 4 4 6 6 3 5 7 5 5 7 7 3 4 8 5 6 7 8 8 8 9 10 8 8 9 9 6 7 8 7 8 9 9 8 7 5 5 4 3 3 4 6 7 5 6 6 5 5 5 6 6 8 6
9 8 9 8 7 8 7 6 5 6 6 5 5 6 5 4 6 4 3 4 5 5 5 5 6 6 7 7 6 7 8 9 9 8 8 10 9 7 7 7 7 8 7 8 7 7 7 6 7 6 5 3 2 2 3 5 5 6 4 3 8 6 5
9 10 10 9 8 7 6 6 6 5 6 6 5 6 4 2 2 4 4 4 3 2 4 5 8 8 8 9 5 6 7 9 9 9 8 9 10 8 7 7 7 7 7 6 6 7 6 5 6 5 3 5 4 4 2 5 5 5 6 8 6 2 3
6 6 7 8 9 9 8 8 8 7 6 6 6 7 6 5 2 4 5 4 3 5 6 6 7 6 8 9 5 5 8 8 7 9 9 9 9 9 7 7 7 7 7 6 6 6 6 6 6 8 5 3 4 3 1 2 2 4 5 5 4 1 0
6 6 6 6 7 9 10 9 7 7 8 8 7 6 7 6 4 3 4 4 5 6 7 7 7 5 6 9 6 7 7 6 7 8 9 9 8 9 8 8 7 7 7 8 7 7 6 8 8 8 8 7 4 2 4 4 3 8 5 5 5 4 2
8 7 6 7 8 8 9 11 10 8 7 8 7 7 7 7 6 9 6 4 4 5 5 6 6 4 4 8 4 4 7 5 6 9 9 8 8 10 9 7 7 8 7 8 7 7 7 7 7 6 7 7 8 7 4 4 5 7 7 4 2 4 4
9 9 9 10 10 11 10 9 9 10 9 7 7 6 7 7 5 6 7 6 5 5 8 9 8 6 6 6 4 4 7 6 7 7 8 8 8 8 8 9 8 7 7 7 8 7 7 6 6 6 6 8 7 8 7 7 7 7 7 7 6 5 6
8 8 8 9 10 10 10 10 11 11 11 9 8 8 7 8 6 7 7 7 6 7 7 7 6 7 8 6 6 7 8 6 6 4 5 6 8 7 7 8 7 7 7 6 7 7 7 7 6 7 6 6 4 7 7 9 7 6 6 4 4 5 7
9 9 8 9 9 10 11 11 12 12 12 13 11 9 8 8 7 6 8 8 7 7 7 7 6 6 8 8 7 6 7 5 5 6 6 6 6 5 8 9 8 8 7 7 7 7 6 6 7 6 6 8 10 7 7 6 6 5 5 7 6 4 8
10 11 10 9 9 11 12 12 12 12 13 12 13 13 10 9 9 9 8 8 9 8 8 8 7 9 9 8 7 7 6 4 5 6 6 6 8 9 10 9 9 8 6 7 7 6 6 6 7 7 7 7 7 6 6 5 5 6 4 6 5 4 5
10 9 10 9 10 11 10 12 12 11 12 12 13 13 11 10 9 8 10 9 10 9 9 9 8 8 9 9 5 4 5 6 7 7 5 6 8 10 11 10 9 8 7 7 6 6 7 9 8 7 7 6 6 6 7 6 6 4 2 3 7 8 7
7 9 10 9 10 11 11 11 12 12 11 12 13 14 12 10 9 11 11 11 11 10 8 8 8 7 7 7 7 5 6 8 7 8 7 7 7 7 9 9 10 9 9 8 7 7 8 8 9 9 6 7 7 6 7 8 7 7 5 3 5 3 4
9 9 10 9 11 11 10 11 13 12 12 12 12 13 14 15 15 14 14 13 11 10 9 8 6 5 3 6 6 5 7 6 7 5 6 7 7 9 11 9 8 8 6 7 8 8 7 9 9 8 8 6 8 7 8 8 7 6 8 6 7 7 6
9 10 11 9 11 10 11 11 12 12 13 12 14 12 13 14 14 14 15 14 11 9 8 6 5 4 5 6 8 6 3 4 7 8 6 6 6 8 10 8 5 2 4 8 7 7 7 7 7 6 6 8 7 8 7 6 6 6 7 7 7 9 7
10 11 10 9 11 11 11 11 11 13 13 13 13 13 13 13 13 14 14 16 10 8 7 7 8 5 3 3 3 3 4 3 4 5 6 5 7 9 9 10 6 5 6 7 6 8 7 7 5 5 7 8 7 7 7 6 6 6 7 7 5 3 6
10 10 10 10 11 11 11 12 12 12 13 14 13 13 14 14 12 14 15 17 12 12 11 13 14 13 8 4 3 4 6 7 7 6 6 5 4 6 4 9 8 7 7 8 7 7 6 7 5 5 5 8 10 9 7 6 6 5 7 7 7 4 4
11 10 10 11 10 11 11 11 13 13 13 13 13 14 14 15 13 12 14 15 18 16 15 13 13 15 15 13 8 5 4 4 5 4 4 6 5 3 5 8 7 7 9 8 7 7 6 4 5 4 8 8 9 7 7 6 7 7 7 7 5 6 6
12 12 11 11 11 12 12 12 12 12 13 14 14 15 15 15 14 13 13 13 12 12 13 15 15 14 14 12 11 10 7 6 6 6 6 6 4 4 4 6 9 7 8 8 7 7 6 7 5 9 7 9 10 9 8 7 7 7 7 5 7 7 5
10 12 13 12 12 13 12 12 12 12 12 12 12 14 14 14 15 16 15 14 12 12 14 13 12 13 13 14 11 10 9 9 7 5 5 5 5 5 4 7 9 10 9 9 8 6 5 6 4 5 6 8 10 10 8 7 7 8 7 6 7 6 7
11 11 12 13 13 12 12 12 11 12 13 12 11 12 14 14 15 15 16 16 14 10 10 9 20 22 16 12 11 10 9 8 8 7 5 4 4 3 3 5 9 19 16 8 9 11 8 11 10 7 7 8 10 9 9 8 8 8 8 8 8 7 9
11 13 12 12 12 13 13 12 11 12 11 11 10 10 11 14 15 14 14 14 15 12 10 13 25 21 21 21 13 10 9 8 7 7 5 3 4 4 4 2 4 7 12 11 8 9 10 13 12 14 12 12 12 10 10 9 9 9 9 9 8 7 6
12 13 12 13 14 12 12 12 12 12 11 12 11 7 10 11 12 13 11 14 13 14 12 24 27 24 22 21 18 11 8 6 7 6 6 4 3 2 2 3 2 3 5 8 4 6 6 9 13 13 12 9 7 6 8 9 10 8 8 8 8 8 8
12 12 13 13 12 13 14 14 13 12 13 11 11 11 8 9 11 12 13 14 13 13 12 25 27 27 24 23 23 17 7 7 6 7 6 6 5 2 1 3 4 3 6 8 3 2 2 4 3 9 12 14 14 13 7 10 8 6 5 7 8 7 9
11 10 10 10 11 12 13 13 12 11 10 12 11 11 10 9 8 10 11 11 11 12 11 24 26 27 26 25 23 18 9 9 7 6 6 6 5 2 2 4 4 4 2 3 4 4 3 4 6 6 5 4 4 5 6 10 9 6 2 4 4 6 6
12 12 12 11 9 10 10 10 11 10 10 11 12 12 12 10 10 9 8 9 9 11 10 25 26 28 27 26 25 15 9 9 8 8 7 7 4 1 5 5 0 2 2 2 3 3 3 2 1 2 3 6 5 1 1 1 1 1 2 1 0 3 4
12 12 12 12 12 11 9 9 8 8 8 9 10 11 12 11 11 12 10 9 8 10 11 23 26 26 28 28 26 11 8 9 9 9 10 11 8 7 8 7 3 2 2 5 7 7 6 9 9 8 6 3 4 5 4 1 1 2 3 1 4 6 7
12 12 13 13 13 12 11 10 8 7 8 9 10 11 11 11 11 12 13 9 10 12 12 20 25 26 26 29 23 12 11 9 10 10 10 10 5 6 7 9 8 7 3 3 3 11 14 10 8 7 7 7 4 5 3 2 8 11 10 13 14 13 11
12 12 12 13 13 12 12 11 11 9 8 9 10 10 10 10 11 11 14 13 12 12 13 18 24 24 26 26 23 13 12 12 12 10 10 11 9 7 9 16 15 9 8 8 6 13 12 7 1 3 3 8 7 6 4 3 5 6 9 12 13 13 13
10 11 12 12 12 12 12 11 11 11 10 8 8 8 8 9 9 10 11 13 18 15 13 16 22 24 25 25 22 11 13 9 10 11 10 11 10 10 10 12 18 15 11 10 12 5 3 5 7 5 5 7 7 6 6 6 6 7 5 6 6 7 8
10 11 12 11 11 11 10 10 12 12 10 10 8 8 9 9 10 9 9 11 12 13 13 14 18 22 23 24 25 17 12 11 14 12 11 10 9 10 11 11 12 20 20 16 16 11 7 6 3 5 5 5 6 5 6 5 5 6 6 5 6 6 8
10 10 10 10 9 9 9 10 11 11 11 10 10 9 10 9 8 8 8 9 10 11 11 13 14 22 21 23 24 20 10 14 11 10 8 9 9 10 10 10 9 17 20 16 15 16 14 9 4 2 4 6 4 10 9 5 7 8 6 7 6 7 7
7 7 9 9 9 9 9 10 12 11 10 10 11 11 11 8 8 8 8 8 8 9 11 15 14 17 21 21 21 23 13 12 13 9 11 10 10 10 11 10 10 14 18 20 15 17 18 17 17 6 5 11 17 16 8 6 6 6 7 6 6 6 6
8 7 8 8 8 8 8 10 10 10 11 11 11 11 11 10 8 9 8 7 7 8 9 10 15 16 20 21 21 20 20 16 17 12 11 11 12 10 9 9 9 18 19 20 19 18 18 19 14 14 11 12 15 15 11 6 6 6 6 6 5 6 6
7 6 7 7 8 8 7 7 8 9 9 10 10 10 10 10 9 10 10 8 8 8 8 9 11 16 16 20 18 20 19 19 18 12 11 10 10 10 12 9 11 19 19 20 19 17 20 18 14 19 19 16 11 9 6 7 6 5 7 7 6 5 6
Wind_Direction
308 305 317 313 311 302 295 289 278 264 259 270 280 285 269 248 241 249 256 251 245 251 229 210 224 237 252 242 219 217 206 205 210 213 208 190 189 198 207 225 222 257 353 334 250 154 135 162 204 201 208 186 195 210 223 187 169 178 189 226 222 152 209
288 281 287 288 296 302 296 292 289 307 320 316 294 278 273 264 256 240 246 251 245 246 246 242 215 214 234 229 237 222 217 209 214 213 202 201 194 199 180 212 204 202 185 238 261 126 138 145 183 186 193 155 186 212 215 185 143 159 199 215 223 195 177
301 300 293 298 294 295 290 289 295 301 302 301 294 280 280 278 268 278 252 248 262 270 286 270 246 238 237 234 234 228 216 221 216 212 209 203 200 194 184 175 188 184 212 209 209 147 129 164 177 191 188 174 195 209 194 197 163 170 196 175 299 225 172
343 330 320 316 317 313 306 311 311 312 317 292 288 286 268 293 286 265 284 285 272 282 292 282 289 259 241 225 212 214 219 215 211 205 211 216 193 198 194 186 192 190 192 190 191 184 172 159 171 210 176 189 193 176 198 182 173 175 182 170 219 236 173
346 341 333 322 318 313 315 314 311 311 302 296 295 291 271 255 276 287 276 279 297 323 300 315 292 287 281 260 230 209 214 214 212 204 205 210 202 198 203 196 203 200 198 198 193 182 185 185 179 187 185 150 185 212 150 167 177 182 148 203 234 220 168
353 350 341 332 334 327 329 322 315 300 292 283 278 280 276 253 279 290 297 291 308 232 264 262 260 252 260 261 237 222 212 219 208 203 201 202 198 197 199 195 191 195 200 199 188 187 187 177 176 164 175 164 175 179 195 167 180 186 178 193 238 304 172
350 341 332 331 332 334 334 327 323 316 309 305 302 296 295 297 298 287 287 293 295 291 272 265 264 261 264 262 250 247 230 223 218 208 204 200 206 200 187 184 192 193 201 204 194 175 177 170 178 183 156 165 173 172 119 182 174 164 199 192 190 207 355
343 330 330 337 338 334 327 319 314 315 316 314 313 313 304 300 281 272 261 264 273 279 283 277 272 246 263 262 242 242 239 226 215 208 214 199 198 196 191 188 188 194 196 195 189 194 185 188 180 176 161 161 171 167 175 190 196 216 186 181 174 172 207
336 338 339 343 341 337 329 324 320 315 311 307 308 310 304 302 323 305 285 264 251 248 258 274 269 280 291 268 270 287 288 277 237 213 209 198 200 195 197 189 190 204 197 191 190 194 197 188 183 175 174 173 170 187 175 183 197 218 200 159 149 176 171
346 348 350 350 344 335 326 318 312 312 308 312 306 299 294 293 286 277 286 285 283 271 270 270 269 260 260 268 259 258 247 240 255 237 234 217 202 196 200 195 199 203 200 187 190 192 192 181 184 187 179 184 180 174 176 197 203 191 209 170 172 185 176
343 347 350 351 343 331 328 331 331 327 324 324 323 315 310 301 301 298 285 283 281 284 276 278 282 283 275 267 236 236 248 235 241 276 275 249 211 200 197 196 203 209 201 197 196 193 183 181 181 196 190 175 210 201 178 187 196 191 188 187 170 154 196
350 351 353 348 342 340 342 340 335 330 327 329 322 323 320 317 316 303 293 290 293 290 281 267 270 286 281 258 245 242 245 246 224 227 226 248 264 243 204 198 206 210 198 199 199 197 183 176 190 193 195 170 202 212 177 166 164 197 181 182 184 174 181
359 355 352 350 349 352 346 340 335 331 329 326 326 323 325 325 320 314 303 299 295 287 277 269 246 244 241 240 232 225 224 221 227 227 227 215 222 226 229 203 204 207 204 198 196 193 192 191 189 197 197 181 174 183 167 160 181 165 188 169 144 194 192
2 359 354 355 356 353 350 345 340 334 333 332 327 321 325 324 323 318 310 301 296 291 283 280 261 243 241 236 231 224 236 257 257 255 233 231 233 237 221 209 200 208 205 206 197 194 197 200 193 195 188 177 174 172 168 172 181 137 113 114 154 186 203
1 7 0 0 358 355 353 350 345 341 337 335 334 327 331 337 335 329 318 306 296 293 290 289 270 247 244 235 222 216 229 229 229 225 228 239 238 250 247 212 204 198 201 206 203 200 196 199 190 192 186 176 181 174 180 174 183 165 157 137 157 186 155
7 15 11 3 2 359 353 0 351 346 346 346 343 346 352 350 346 336 323 307 291 287 288 286 276 257 230 277 270 214 219 243 259 252 244 247 249 245 241 232 219 192 181 206 207 210 201 198 195 187 187 180 188 176 197 195 173 169 163 174 169 175 178
10 20 14 9 2 3 359 4 355 351 353 353 351 353 351 350 346 339 328 316 303 293 288 293 301 288 266 252 256 272 306 224 245 256 270 269 261 270 275 263 232 172 202 212 207 215 217 207 205 153 166 180 193 174 195 212 192 170 172 161 180 175 172
18 20 16 11 2 7 10 6 4 357 355 357 357 353 350 348 347 346 338 331 327 330 335 322 308 303 279 286 327 301 246 251 258 244 232 231 249 253 238 234 232 203 214 213 210 212 207 217 187 167 179 162 194 193 190 197 187 170 160 159 136 141 149
15 19 13 16 12 7 11 13 9 3 0 359 359 358 354 352 351 348 347 338 352 355 360 7 7 350 330 296 294 293 304 287 280 268 267 273 263 266 247 228 218 201 215 220 214 214 211 214 200 171 118 132 186 203 185 185 180 164 163 159 145 139 139
12 12 16 20 13 12 13 14 14 11 5 0 1 2 356 354 353 347 351 5 25 24 27 24 18 8 351 348 340 305 283 267 265 278 276 266 269 267 263 248 246 210 208 212 211 211 214 204 204 90 143 163 179 190 186 187 177 174 165 147 145 155 147
10 12 10 15 18 14 13 13 14 16 11 8 4 3 359 357 355 355 360 6 21 20 18 21 16 5 358 349 343 341 325 302 279 269 261 266 270 271 279 272 266 240 217 210 207 202 203 218 172 163 173 155 164 183 189 177 175 177 170 161 156 168 176
13 13 12 12 15 15 13 14 12 15 19 14 8 4 1 2 1 2 359 2 14 29 26 17 13 1 352 347 341 332 328 324 314 289 277 272 253 247 247 266 266 260 230 213 210 213 195 196 158 161 161 160 171 177 171 170 169 177 179 173 170 172 184
18 18 15 14 15 14 14 15 12 11 17 18 14 6 5 4 7 4 3 5 3 28 26 19 2 359 359 349 333 332 328 329 326 310 290 281 290 279 243 236 244 255 251 213 201 207 201 201 196 190 175 174 170 178 173 169 172 174 177 178 188 184 183
19 21 17 15 13 14 13 14 12 10 15 18 18 13 9 11 8 4 5 4 4 12 20 6 359 359 354 352 347 331 323 315 311 307 294 293 289 290 309 270 265 268 263 239 213 176 182 185 174 178 173 171 178 176 177 175 176 173 176 181 188 198 196
24 23 20 18 14 12 12 15 15 8 9 12 13 19 18 17 10 4 4 4 6 5 12 2 359 357 355 350 345 329 302 301 309 308 303 281 265 278 296 311 273 173 248 271 261 176 178 178 173 173 178 173 192 215 200 181 167 173 181 180 191 198 200
32 28 24 21 15 16 13 15 11 7 9 7 7 14 25 16 21 13 6 3 359 1 10 2 358 356 354 351 345 337 300 295 301 305 312 312 302 276 109 286 301 238 231 219 222 317 182 129 137 159 177 181 175 195 171 104 147 170 188 194 194 198 202
14 33 33 27 25 22 18 16 12 6 5 5 7 8 13 22 24 22 12 5 1 359 9 1 359 357 355 351 345 336 309 317 303 302 301 297 287 24 354 291 282 296 231 147 197 207 231 190 155 148 153 150 170 196 120 124 140 139 173 220 198 202 204
14 19 20 25 28 34 27 21 17 12 9 6 7 4 3 13 17 18 17 11 5 4 9 6 3 359 357 352 345 335 326 326 324 323 319 311 326 192 259 264 296 306 342 133 159 258 196 232 145 127 161 168 168 183 51 45 55 113 132 254 222 96 57
14 15 18 18 20 22 30 23 21 18 20 18 15 8 1 6 10 12 17 14 6 7 7 9 6 3 359 355 347 340 334 332 336 340 349 348 10 25 16 5 345 148 187 217 207 123 209 199 188 188 184 177 107 96 57 58 278 300 1 321 86 99 101
14 12 21 21 17 13 16 17 15 20 25 28 23 18 6 6 6 9 12 18 11 9 8 10 6 4 3 0 356 345 339 336 344 355 0 350 15 57 32 11 358 346 311 256 177 174 203 196 186 191 191 165 137 124 104 105 62 57 69 85 95 100 100
19 14 19 23 20 17 14 16 9 0 17 30 30 25 13 9 9 11 13 13 15 13 7 10 7 4 4 4 3 350 355 355 352 358 358 2 23 36 34 32 22 358 345 341 339 199 217 197 324 315 185 141 147 137 134 114 83 53 75 92 98 100 96
19 17 21 23 23 22 15 11 11 4 4 17 31 30 22 13 13 15 19 14 12 13 12 8 7 6 7 7 7 357 3 352 354 359 6 1 14 19 10 10 15 9 351 342 359 36 16 248 195 192 184 159 150 152 153 148 125 124 127 105 96 97 79
23 22 20 20 28 27 18 15 11 7 7 6 18 32 25 20 14 15 19 20 19 16 13 10 8 7 9 11 10 10 7 7 6 6 11 5 3 11 7 3 3 3 349 2 9 15 56 26 204 206 200 189 158 141 138 143 143 128 123 122 114 99 97
23 25 22 23 24 22 21 25 13 10 6 5 10 21 24 18 16 16 20 22 22 15 14 9 4 7 8 10 12 13 6 12 360 4 6 11 12 11 7 3 2 357 353 357 24 19 19 25 13 211 174 216 163 133 139 142 148 142 120 108 104 98 94
28 26 24 21 22 23 25 26 21 9 8 6 6 15 14 8 14 16 22 17 20 12 5 8 7 4 6 8 11 14 15 12 5 5 12 21 16 18 10 2 4 359 4 359 13 39 27 24 24 10 124 127 127 131 129 136 139 121 116 118 115 108 104
38 22 24 16 24 24 27 29 21 10 12 6 9 11 13 1 7 14 15 19 16 16 9 3 8 7 4 4 9 11 13 14 7 15 18 19 18 13 7 5 360 12 16 9 6 26 38 32 30 27 25 120 122 116 120 124 117 124 132 126 110 101 99
53 36 22 9 16 24 31 38 23 16 13 11 11 11 11 2 358 16 7 14 14 15 14 6 2 7 5 2 4 10 9 10 13 11 17 20 12 7 10 6 12 17 22 18 6 15 36 37 37 39 37 24 65 91 124 141 150 125 98 89 87 85 84